Regional Weather Roundup
Issued by NWS New Orleans/Baton Rouge, LA

Home | Current Version | Previous Version | Text Only | Print | Product List | Glossary On
Versions: 1 2 3 4 5 6 7 8 9 10 11 12 13 14 15 16 17 18 19 20 21 22 23 24 25 26 27 28 29 30 31 32 33 34 35 36 37 38 39 40 41 42 43 44 45 46 47 48 49 50
000
ASUS44 KLIX 230512
RWRLIX
NEW ORLEANS REGIONAL WEATHER ROUNDUP
NATIONAL WEATHER SERVICE NEW ORLEANS LA
1200 AM CDT SUN APR 23 2017

NOTE: "FAIR" INDICATES FEW OR NO CLOUDS BELOW 12,000 FEET WITH NO
      SIGNIFICANT WEATHER AND/OR OBSTRUCTIONS TO VISIBILITY.
      SKY/WX - SKY CONDITION AND SIGNIFICANT WEATHER.
      TMP - AIR TEMPERATURE.     DP    - DEWPOINT TEMPERATURE.
      RH  - RELATIVE HUMIDITY.   PRES  - PRESSURE.
      HI  - HEAT INDEX.          WCI   - WIND CHILL INDEX.

*  THESE STATIONS ARE NOT NWS OR FAA STATIONS AND ARE NOT UNDER
   NWS QUALITY CONTROL.

LAZ038-040-048-061>063-065>067-069-230600-
SOUTHEAST LOUISIANA

CITY           SKY/WX    TMP DP  RH WIND       PRES   REMARKS
N.O. INTL ARPT CLOUDY    72  69  90 N10       29.89R
N.O. LAKEFRONT LGT RAIN  72  70  93 N22       29.90R
N.O. DOWNTOWN* LGT RAIN  76  71  85 W6          N/A
RESERVE*       NOT AVBL
SLIDELL        LGT RAIN  70  68  93 N15G21    29.89S
BATON ROUGE    CLOUDY    67  63  87 N9        29.94R
BOOTHVILLE     CLOUDY    77  70  79 SW13      29.91S
BELLE CHASSE   CLOUDY   N/A N/A N/A SW12      29.88F THUNDER
BOGALUSA*      NOT AVBL
GALLIANO*      CLOUDY    76  68  75 SW7       29.91R
NEW ROADS*     CLOUDY    64  57  80 NW9       29.96S
GONZALES*      CLOUDY    68  67  94 N8        29.92R
HAMMOND*       CLOUDY    64  63  94 N10       29.93R
HOUMA*         HVY RAIN  71  68  91 NW17G23   29.91R
PORT FOURCHON* PTCLDY    77  70  78 W14       29.91S

$$

MSZ070-080>082-230600-
SOUTHERN MISSISSIPPI

CITY           SKY/WX    TMP DP  RH WIND       PRES   REMARKS
MCCOMB         PTCLDY    62  57  83 N8        29.93F
GULFPORT       TSTM      76  73  91 SE6       29.83F FOG
BILOXI         RAIN      75  72  88 SW9       29.85F
PASCAGOULA     CLOUDY    76  67  73 VRB7      29.88F

$$

COASTAL OBSERVATIONS
LAKE AND NEARSHORE STATIONS

STATION/POSITION TIME  TEMP    WIND        PRES    WAVE
                       AIR SEA DIR/SP/G            HT/PER
                 (UTC) (F)     (DEG/KT/KT) (MB)    (FT/S)
PASCAGOULA       0448   77     220/ 13/ 18 1011.6
WAVELAND YACHT   0448   74 80  250/ 10/ 13 1010.7
GRAND ISLE       0448   76 79  260/  9/ 13 1012.6
SOUTHWEST PASS   0448          240/  9/  9   N/A
NEW CANAL        0448   72 77  360/ 13/ 18 1012.1
SHELL BEACH      0448   76 80  230/ 13/ 19 1011.8

OFFSHORE STATIONS

STATION/POSITION TIME  TEMP    WIND        PRES    WAVE
                       AIR SEA DIR/SP/G            HT/PER
                 (UTC) (F)     (DEG/KT/KT) (MB)    (FT/S)
64 S DAUPHIN ISL 0450   75 77  220/ 12/ 14 1013.0    2/ 6

$$




USA.gov is the U.S. government's official web portal to all federal, state and local government web resources and services.